DateTimeUTC,F1_A11,F1_S11,BsB_S11,BsG_S11,BsR_S11,BbsB_S11,BbsG_S11,BbsR_S11,BaB_A11,BaG_A11,BaR_A11,Tu_S11,T_S11,Uu_S11,U_S11,P_S11,T1_A11
2021-08-19T04:00:00Z,00000200,20000000,,,,,,,-000.29,-000.37,-000.55,19.8,26.3,15.9,10.7,0676.6,31.1
2021-08-19T04:01:00Z,00000200,20000000,,,,,,,0000.08,0000.28,0000.14,19.8,26.3,15.9,10.7,0676.6,31.1
2021-08-19T04:02:00Z,00000200,20000000,,,,,,,0000.24,-000.07,0000.16,19.8,26.3,15.9,10.7,0676.6,31.1
2021-08-19T04:03:00Z,00000200,60000000,,,,,,,0000.12,0000.11,0000.05,19.8,26.3,15.9,10.7,0676.6,31.1
2021-08-19T04:04:00Z,00000200,40000000,-000.00,0000.43,0000.16,-000.01,-000.17,0000.21,-000.09,0000.18,0000.03,19.9,26.2,15.8,10.8,0677.6,31.1
2021-08-19T04:05:00Z,00000200,00000000,0000.25,0000.24,0000.03,-000.41,-000.26,-000.24,0000.17,-000.37,-000.26,20.0,26.2,15.7,10.8,0677.6,31.1
2021-08-19T04:06:00Z,00000200,00000000,-000.27,0000.16,-000.09,-000.44,0000.18,0000.26,-000.14,0000.03,0000.25,19.9,26.2,15.8,10.8,0677.6,31.1
2021-08-19T04:07:00Z,00000200,00000000,-000.29,0000.32,0000.00,0000.39,0000.07,-000.21,-000.15,0000.00,0000.12,19.9,26.1,15.7,10.8,0677.6,31.1
2021-08-19T04:08:00Z,00000200,00000000,0000.05,0000.02,-000.10,0000.15,-000.00,0000.17,0000.26,0000.33,-000.29,19.9,26.1,15.6,10.7,0677.6,31.1
2021-08-19T04:09:00Z,00000200,00000000,0000.83,-000.11,-000.27,0000.07,-000.03,-000.23,-000.33,-000.17,-000.03,20.0,26.1,15.7,10.8,0677.6,31.1
2021-08-19T04:10:00Z,00000200,00000000,-000.08,0000.08,0000.04,-000.69,-000.27,0000.37,0000.08,-000.32,0000.02,20.0,26.1,15.7,10.8,0677.6,31.1
2021-08-19T04:11:00Z,00000200,00000000,0000.16,0000.22,0000.12,0000.24,-000.29,0000.13,0000.16,0000.23,0000.14,20.0,26.1,15.7,10.8,0677.6,31.1
2021-08-19T04:12:00Z,00000200,00000000,0000.59,-000.16,-000.05,-000.69,-000.01,0000.36,-000.31,-000.30,0000.07,20.0,26.1,15.6,10.8,0677.6,31.1
2021-08-19T04:13:00Z,00000200,00000000,-000.44,0000.07,-000.24,0000.39,-000.18,0000.02,0000.16,0000.22,-000.09,19.9,26.1,15.6,10.8,0677.7,31.1
2021-08-19T04:14:00Z,00000200,00000000,-000.14,0000.16,-000.22,-000.06,-000.01,-000.12,0000.14,0000.13,-000.04,20.0,26.1,15.6,10.8,0677.6,31.1
2021-08-19T04:15:00Z,00000200,00000000,0000.51,0000.02,0000.04,-000.33,0000.01,0000.06,-000.00,0000.23,0000.30,20.0,26.1,15.7,10.8,0677.6,31.1
2021-08-19T04:16:00Z,00000200,00000000,-000.07,0000.25,-000.07,-000.45,0000.05,0000.10,-000.08,-000.34,-000.11,20.0,26.1,15.7,10.8,0677.6,31.1
2021-08-19T04:17:00Z,00000200,00000000,0000.32,0000.23,0000.03,0000.32,0000.18,0000.00,0000.16,0000.32,0000.04,20.0,26.1,15.7,10.8,0677.6,31.1
2021-08-19T04:18:00Z,00000200,00000000,0000.36,0000.11,-000.14,0000.30,0000.05,-000.07,0000.34,0000.20,0000.30,20.0,26.1,15.6,10.8,0677.6,31.1
2021-08-19T04:19:00Z,00000200,00000000,-000.52,0000.09,-000.14,0000.41,0000.18,0000.21,-000.46,-000.37,-000.50,20.0,26.1,15.6,10.8,0677.6,31.1
2021-08-19T04:20:00Z,00000200,00000000,-000.50,0000.07,0000.12,0000.47,-000.21,0000.06,-000.23,0000.13,0000.03,20.0,26.1,15.6,10.7,0677.6,31.1
2021-08-19T04:21:00Z,00000200,00000000,-000.52,-000.20,-000.55,0000.47,-000.00,0000.02,0000.14,0000.09,0000.28,20.0,26.1,15.5,10.7,0677.6,31.1
2021-08-19T04:22:00Z,00000200,00000000,0000.22,0000.26,-000.25,0000.29,-000.18,-000.27,-000.00,-000.26,-000.31,20.0,26.1,15.6,10.7,0677.6,31.1
2021-08-19T04:23:00Z,00000200,00000000,-000.72,-000.01,0000.11,-000.09,-000.17,0000.35,0000.08,-000.01,0000.24,20.0,26.1,15.5,10.7,0677.6,31.1
2021-08-19T04:24:00Z,00000200,00000000,-000.38,0000.18,-000.07,0000.27,-000.11,-000.03,-000.04,0000.02,0000.02,20.0,26.1,15.4,10.6,0677.6,31.1
2021-08-19T04:25:00Z,00000200,00000000,0000.07,0000.20,-000.30,0000.42,-000.01,0000.00,-000.14,-000.05,-000.12,20.0,26.1,15.5,10.7,0677.6,31.1
2021-08-19T04:26:00Z,00000200,00000000,-001.00,0000.09,-000.39,0000.60,-000.01,0000.35,0000.26,-000.00,0000.01,20.0,26.1,15.6,10.7,0677.6,31.1
2021-08-19T04:27:00Z,00000200,00000000,0000.09,0000.14,0000.04,0000.31,-000.03,-000.05,-000.15,0000.20,-000.28,20.0,26.1,15.5,10.7,0677.6,31.1
2021-08-19T04:28:00Z,00000200,00000000,0000.35,-000.15,0000.12,-000.43,0000.05,-000.02,0000.14,-000.04,-000.03,19.9,26.1,15.5,10.7,0677.6,31.1
2021-08-19T04:29:00Z,00000200,00000000,0000.58,0000.07,0000.15,-000.04,-000.25,0000.19,-000.22,-000.15,0000.09,20.0,26.1,15.3,10.6,0677.6,31.1
2021-08-19T04:30:00Z,00000200,00000000,0000.01,0000.42,-000.33,0000.14,-000.11,-000.10,-000.04,0000.02,0000.11,19.9,26.1,15.4,10.6,0677.6,31.1
2021-08-19T04:31:00Z,00000200,00000000,0000.55,0000.01,-000.30,-000.04,-000.01,0000.19,0000.14,-000.12,-000.13,20.0,26.1,15.5,10.7,0677.6,31.1
2021-08-19T04:32:00Z,00000200,00000000,0000.31,0000.27,0000.00,-000.01,0000.01,0000.02,0000.08,0000.04,0000.13,20.0,26.1,15.3,10.6,0677.6,31.1
2021-08-19T04:33:00Z,00000200,00000000,0000.32,0000.16,-000.19,0000.41,-000.10,-000.01,-000.01,-000.04,-000.17,19.9,26.1,15.3,10.6,0677.5,31.1
2021-08-19T04:34:00Z,00000200,00000000,0000.09,0000.28,0000.06,0000.17,-000.08,0000.14,0000.02,-000.05,0000.34,19.9,26.1,15.3,10.6,0677.6,31.1
2021-08-19T04:35:00Z,00000200,00000000,0000.17,0000.24,-000.19,-000.23,-000.19,0000.25,0000.11,0000.14,-000.05,20.0,26.1,15.3,10.6,0677.6,31.1
2021-08-19T04:36:00Z,00000200,00000000,0000.11,0000.25,-000.19,0000.47,0000.26,0000.02,-000.20,-000.15,-000.41,20.0,26.1,15.3,10.6,0677.5,31.1
2021-08-19T04:37:00Z,00000200,00000000,0000.05,0000.25,-000.19,-000.23,0000.00,0000.03,-000.12,-000.24,0000.18,20.0,26.1,15.4,10.6,0677.5,31.1
2021-08-19T04:38:00Z,00000200,00000000,0001.13,0000.29,-000.01,0000.61,-000.07,0000.10,-000.18,-000.01,-000.09,20.0,26.1,15.3,10.6,0677.6,31.1
2021-08-19T04:39:00Z,00000200,00000000,0000.12,-000.04,-000.08,-000.42,-000.10,-000.02,0000.21,0000.38,0000.12,20.0,26.1,15.2,10.5,0677.5,31.1
2021-08-19T04:40:00Z,00000200,00000000,-000.30,-000.16,-000.02,0000.65,0000.02,0000.11,-000.07,-000.22,-000.07,20.0,26.1,15.3,10.6,0677.5,31.1
2021-08-19T04:41:00Z,00000200,00000000,0000.03,0000.21,0000.17,-000.04,-000.02,0000.11,-000.04,0000.20,0000.03,20.0,26.1,15.2,10.5,0677.5,31.1
2021-08-19T04:42:00Z,00000200,00000000,0000.13,0000.02,-000.02,0000.03,-000.03,0000.26,0000.13,-000.24,0000.03,20.0,26.1,15.4,10.6,0677.5,31.1
2021-08-19T04:43:00Z,00000200,00000000,0000.24,0000.02,0000.09,0000.13,-000.03,0000.06,0000.00,0000.35,0000.08,20.0,26.1,15.3,10.5,0677.5,31.1
2021-08-19T04:44:00Z,00000200,00000000,-000.49,0000.43,0000.12,0000.34,-000.05,0000.29,0000.07,-000.27,-000.03,20.0,26.1,15.3,10.6,0677.5,31.1
2021-08-19T04:45:00Z,00000200,00000000,0000.20,0000.19,0000.13,0000.33,-000.15,0000.27,-000.03,0000.17,-000.06,20.0,26.1,15.2,10.5,0677.5,31.1
2021-08-19T04:46:00Z,00000200,00000000,-000.09,0000.22,-000.26,-000.07,-000.14,0000.19,-000.40,0000.20,0000.10,20.0,26.1,15.1,10.5,0677.5,31.1
2021-08-19T04:47:00Z,00000200,00000000,0000.02,0000.08,0000.10,-000.28,0000.13,0000.20,0000.28,-000.12,0000.31,20.0,26.1,15.1,10.5,0677.5,31.1
2021-08-19T04:48:00Z,00000200,00000000,-000.35,0000.12,-000.19,0000.20,-000.46,-000.03,-000.06,-000.24,-000.52,20.0,26.1,15.1,10.5,0677.5,31.1
2021-08-19T04:49:00Z,00000200,00000000,0000.05,0000.25,-000.24,0000.04,-000.01,-000.03,-000.27,-000.03,-000.17,20.0,26.1,15.1,10.4,0677.5,31.1
2021-08-19T04:50:00Z,00000200,00000000,-000.10,-000.02,0000.21,0000.22,-000.27,0000.45,0000.55,-000.26,0000.06,19.9,26.1,15.1,10.5,0677.5,31.1
2021-08-19T04:51:00Z,00000200,00000000,0000.14,-000.02,0000.18,-000.15,0000.13,0000.23,-000.49,0000.20,0000.19,20.0,26.1,15.1,10.4,0677.5,31.1
2021-08-19T04:52:00Z,00000200,00000000,0000.56,0000.03,-000.37,-000.22,-000.19,-000.02,0000.11,0000.09,-000.17,20.0,26.1,15.1,10.4,0677.5,31.1
2021-08-19T04:53:00Z,00000200,00000000,0000.29,0000.44,-000.17,-000.02,-000.21,0000.47,0000.06,0000.18,0000.20,20.0,26.1,15.0,10.4,0677.5,31.1
2021-08-19T04:54:00Z,00000200,00000000,0000.28,-000.02,-000.31,0000.20,-000.29,0000.24,-000.14,-000.66,-000.13,20.0,26.1,15.0,10.4,0677.5,31.1
2021-08-19T04:55:00Z,00000200,00000000,0000.26,0000.19,0000.26,0000.36,-000.10,0000.52,-000.12,0000.38,-000.16,20.0,26.1,15.0,10.4,0677.5,31.1
2021-08-19T04:56:00Z,00000200,00000000,0000.16,0000.00,-000.26,-000.17,-000.05,0000.37,0000.22,0000.02,0000.30,20.0,26.1,15.0,10.3,0677.5,31.1
2021-08-19T04:57:00Z,00000200,40000000,,,,,,,0000.18,-000.22,0000.22,20.0,26.2,15.3,10.5,0677.5,31.1
2021-08-19T04:58:00Z,00000200,60000000,,,,,,,0000.04,0000.31,-000.46,19.8,26.2,15.0,10.1,0676.5,31.1
2021-08-19T04:59:00Z,00000200,20000000,,,,,,,-000.38,-000.43,0000.01,19.7,26.3,15.0,10.1,0676.5,31.1
